Regional Weather Roundup
Issued by NWS

Home | Current Version | Previous Version | Graphics & Text | Print | Product List | Glossary Off
Versions: 1 2 3 4 5 6 7 8 9 10 11 12 13 14 15 16 17 18 19 20 21 22 23 24 25 26 27 28 29 30 31 32 33 34 35 36 37 38 39 40 41 42 43 44 45 46 47 48 49 50

000
ASUS43 KDTX 231110
RWRMI
MICHIGAN HOURLY REGIONAL WEATHER ROUNDUP
NATIONAL WEATHER SERVICE DETROIT/PONTIAC MI
700 AM EDT WED AUG 23 2017

NOTE: "FAIR" INDICATES FEW OR NO CLOUDS BELOW 12,000 FEET WITH NO
SIGNIFICANT WEATHER AND/OR OBSTRUCTION TO VISIBILITY.

MIZ047>049-052>055-059>063-066>070-074>076-081>083-231200-
SOUTHEAST LOWER MICHIGAN

CITY           SKY/WX    TMP DP  RH WIND       PRES   REMARKS
ADRIAN         CLEAR     56  52  86 W6        29.97R
ALMA           CLEAR     54  52  91 W12       29.93S
ANN ARBOR      CLEAR     52  51  97 SW5       29.94R
BAD AXE        CLEAR     53  51  92 CALM      29.89R
CARO           CLEAR     55  51  86 W5        29.90R
DETROIT CITY   CLEAR     57  53  86 SW6       29.93R
DETROIT        PTCLDY    58  54  86 W7        29.94R
FLINT          CLEAR     55  51  86 W6        29.92S
GROSSE ILE     CLEAR     58  53  83 W5        29.93R
HILLSDALE      CLEAR     54  52  94 W3        29.97R
HOWELL         CLEAR     55  52  90 W5        29.94R

CITY           SKY/WX    TMP DP  RH WIND       PRES   REMARKS
JACKSON        LGT RAIN  56  52  86 SW3       29.96R
LAMBERTVILLE   CLEAR     56  53  91 W5        29.95S
LANSING        CLEAR     59  51  75 W7        29.95R
LAPEER         FAIR      56  52  86 W5        29.92R
MASON          CLEAR     54  51  92 SW3       29.95R
MONROE         CLEAR     52  51  97 W3        29.94R
MT. CLEMENS    CLEAR     58  54  86 W7        29.90R
PONTIAC        PTCLDY    57  53  86 W8        29.92R
PORT HOPE        N/A     57  54  89 SW6       29.85R
PORT HURON     CLEAR     52  50  93 CALM      29.91R FOG
TRI CITIES     CLEAR     55  54  96 W8        29.92R
MIDLAND        FAIR      55  53  92 W3        29.90R
TROY           CLEAR     60  53  77 W5        29.94R
SAGINAW HB     PTCLDY    55  52  88 SW7       29.90R
$$
MIZ043>046-050>051-056>058-064>065-071>073-077>080-231200-
SOUTHWEST LOWER MICHIGAN

CITY           SKY/WX    TMP DP  RH WIND       PRES   REMARKS
BATTLE CREEK   CLEAR     57  53  86 W7        29.98R
BENTON HARBOR  CLEAR     68  50  52 W9        29.98R
BIG RAPIDS     CLEAR     55  51  85 W8        29.93R
COLDWATER      CLEAR     54  54 100 W5        29.98R
FREMONT        FAIR      55  54  95 CALM      29.95R
HOLLAND        PTCLDY    66  52  60 VRB6      29.97R
GRAND RAPIDS   PTCLDY    60  54  80 W7        29.96R
IONIA          FAIR      55  52  88 W8        29.95R
KALAMAZOO      CLEAR     59  51  75 W6        29.98R
LUDINGTON      PTCLDY    61  53  75 NW7       29.93S
MARSHALL       CLEAR     53  53  98 W3        29.97R
MOUNT PLEASANT CLEAR     57  53  87 W5        29.91S
MUSKEGON       PTCLDY    66  53  63 NW8       29.95R
SOUTH HAVEN    CLEAR     68  52  56 NW8       29.98R
$$
MIZ016>042-231200-
NORTHERN LOWER MICHIGAN

CITY           SKY/WX    TMP DP  RH WIND       PRES   REMARKS
ALPENA         CLEAR     56  53  90 W7        29.85R
BEAVER ISLAND  MOCLDY    58  53  81 NW10G17   29.89R
BELLAIRE       MOCLDY    60  52  75 NW3       29.90R
CADILLAC       PTCLDY    55  52  89 W6        29.92R
CHARLEVOIX     MOCLDY    60  54  79 NW13      29.92R
FRANKFORT      MOCLDY    63  55  75 NW5       29.92R
GAYLORD        PTCLDY    54  51  90 VRB5      29.88R
GRAYLING       PTCLDY    51  48  92 CALM      29.90R
HARBOR SPRINGS CLEAR     56  52  88 NW3       29.88R
HOUGHTON LAKE  CLEAR     57  53  86 NW10      29.90R
MANISTEE       MOCLDY    62  55  77 NW10      29.93R
OSCODA         PTCLDY    54  52  94 W6        29.85S
PELLSTON       PTCLDY    57  53  86 W6        29.87R
ROGERS CITY    CLEAR     54  52  92 W3        29.85R
TRAVERSE CITY  PTCLDY    60  54  80 W10       29.89R
$$
MIZ007>008-015-231200-
EASTERN UPPER MICHIGAN

CITY           SKY/WX    TMP DP  RH WIND       PRES   REMARKS
KINROSS        MOCLDY    53  51  93 W7        29.84R
MACKINAC ISLAN CLEAR     55  54  94 W10G16    29.85R
NEWBERRY       PTCLDY    52  51  97 NW5       29.86S
S. S. MARIE    PTCLDY    57  50  77 NW8G21    29.81R
MUNISING         N/A     59  54  83 N16G24    29.90R
$$
MIZ004>006-011>014-085-231200-
CENTRAL UPPER MICHIGAN

CITY           SKY/WX    TMP DP  RH WIND       PRES   REMARKS
MANISTIQUE     PTCLDY    51  46  82 NW6       29.88S
ESCANABA       CLEAR     51  50  96 W6        29.93R
MENOMINEE      CLEAR     54  52  93 VRB3      29.96R
SAWYER-GWINN   MOCLDY    50  50 100 NW6       29.94R
$$
MIZ001>003-009>011-084-231200-
WESTERN UPPER MICHIGAN

CITY           SKY/WX    TMP DP  RH WIND       PRES   REMARKS
IRON MOUNTAIN  CLEAR     52  49  89 NW7       29.95R
HOUGHTON       CLEAR     52  45  77 NW12      29.95R
COPPER HARBOR    N/A     56  48  74 N17G26    29.92R
IRONWOOD       CLOUDY    54  54 100 SW5       30.02R
$$

ABBREVIATIONS USED IN REMARKS
   TC - TEMPERATURE IN CELSIUS
  WCI - WIND CHILL INDEX
   HX - HEAT INDEX
  VSB - VISIBILITY




USA.gov is the U.S. government's official web portal to all federal, state and local government web resources and services.